Location: Bakhuizen
(52.8696°N, 5.4575°E)
Time: 09:15:18
(UTC+00:00)

Spot 2 Rocket - Pass Details

Date: 11 May 2021
Orbit: 757 x 772 km, 98.5° (Epoch: 15 June)

Event Time Altitude Azimuth Distance (km) Brightness Sun altitude
Exits shadow 20:22:05 - 151° (SSE) 2,422 5.5 -7.8°
Reaches altitude 10° 20:22:25 10° 150° (SSE) 2,291 5.3 -7.8°
Maximum altitude 20:27:24 65° 70° (ENE) 837 3.6 -8.3°
Drops below altitude 10° 20:32:25 10° 349° (N) 2,301 7.0 -8.9°
Sets 20:34:44 0° 347° (NNW) 3,231 7.9 -9.1°
